Alamosa, CO

4:26 AM MDT on October 16, 2019 (GMT -0600)
San Luis Valley Regional / Bergman Field

Weather History for KALS - September, 2019

Change the Weather History Date:

Monday, September 16, 2019

  Actual Average Record
Temperature  
Mean Temperature 59 °F 55 °F  
Max Temperature 70 °F 73 °F 85 °F (1956)
Min Temperature 48 °F 37 °F 22 °F (1951)
Degree Days  
Heating Degree Days 6 10  
Month to date heating degree days 73 120  
Since 1 July heating degree days 136 249  
Cooling Degree Days 0 0  
Month to date cooling degree days 6 0  
Year to date cooling degree days 72 51  
Growing Degree Days 10 (Base 50)    
Moisture  
Dew Point 50 °F    
Average Humidity 73    
Maximum Humidity 96    
Minimum Humidity 49    
Precipitation  
Precipitation 0.26 in 0.03 in 0.31 in (1938)
Month to date precipitation 0.73 0.55  
Year to date precipitation 6.78 5.50  
Snow  
Snow 0.00 in 0.00 in 0.00 in (2002)
Month to date snowfall 0.0 0.0  
Since 1 July snowfall 0.0 0.0  
Since 1 September snowfall 0.0 0.0  
Snow Depth 0.00 in    
Sea Level Pressure  
Sea Level Pressure 30.08 in    
Wind  
Wind Speed 8 mph (South)    
Max Wind Speed 17 mph    
Max Gust Speed 23 mph    
Visibility 9 miles    
Events Rain    
T = Trace of Precipitation, MM = Missing Value Source: NWS Daily Summary

Daily Weather History Graph

Daily Weather History Graph

Search for Another Location

Airport or City:

Astronomy

Sep. 16, 2019 Rise Set
Actual Time 6:46 AM MDT 7:09 PM MDT
Civil Twilight 6:19 AM MDT 7:36 PM MDT
Nautical Twilight 5:49 AM MDT 8:06 PM MDT
Astronomical Twilight 5:17 AM MDT 8:38 PM MDT
Moon 8:48 PM MDT 8:53 AM MDT
Length of Visible Light 13h 16m
Length of Day
12h 23m
Waning Gibbous, 94% of the Moon is Illuminated
Sep 16
Waning Gibbous
Sep 21
Last Quarter
Sep 28
New
Oct 5
First Quarter
Oct 13
Full

Hourly Weather History & Observations

Time (MDT) Temp. Dew Point Humidity Pressure Visibility Wind Dir Wind Speed Gust Speed Precip Events Conditions
12:52 AM 52.0 °F 48.0 °F 86% 30.05 in 10.0 mi SE 5.8 mph - N/A   Overcast
1:52 AM 53.1 °F 48.9 °F 86% 30.05 in 10.0 mi South 9.2 mph - 0.00 in Rain Light Rain
2:52 AM 52.0 °F 50.0 °F 93% 30.04 in 3.0 mi South 8.1 mph - 0.11 in Rain Rain
3:52 AM 52.0 °F 50.0 °F 93% 30.06 in 5.0 mi SE 5.8 mph - 0.08 in Rain Light Rain
4:19 AM 52.0 °F 50.0 °F 93% 30.28 in 6.0 mi ESE 5.8 mph - 0.06 in Rain Light Rain
4:37 AM 52.0 °F 50.0 °F 93% 30.28 in 10.0 mi ESE 4.6 mph - 0.06 in   Overcast
4:52 AM 52.0 °F 50.0 °F 93% 30.09 in 10.0 mi Calm Calm - 0.06 in   Overcast
5:19 AM 52.0 °F 50.0 °F 93% 30.28 in 10.0 mi Calm Calm - N/A   Overcast
5:52 AM 52.0 °F 50.0 °F 93% 30.08 in 10.0 mi ENE 3.5 mph - N/A   Overcast
6:52 AM 52.0 °F 50.0 °F 93% 30.09 in 9.0 mi Calm Calm - N/A   Overcast
7:16 AM 52.0 °F 50.0 °F 93% 30.29 in 8.0 mi Calm Calm - N/A   Overcast
7:35 AM 53.1 °F 50.0 °F 89% 30.29 in 7.0 mi Calm Calm - N/A   Overcast
7:52 AM 53.1 °F 50.0 °F 89% 30.10 in 6.0 mi ENE 3.5 mph - 0.00 in Rain Light Rain
8:52 AM 54.0 °F 51.1 °F 90% 30.10 in 9.0 mi South 9.2 mph - 0.01 in   Overcast
9:35 AM 55.9 °F 51.1 °F 84% 30.30 in 10.0 mi South 10.4 mph - N/A   Mostly Cloudy
9:52 AM 55.9 °F 51.1 °F 84% 30.10 in 10.0 mi SSW 8.1 mph - N/A   Overcast
10:52 AM 59.0 °F 52.0 °F 78% 30.09 in 10.0 mi WSW 4.6 mph - N/A   Overcast
11:29 AM 60.1 °F 50.0 °F 69% 30.29 in 10.0 mi Variable 3.5 mph - N/A   Overcast
11:52 AM 62.1 °F 51.1 °F 67% 30.05 in 10.0 mi WSW 5.8 mph - N/A   Overcast
1:52 PM 64.9 °F 50.0 °F 58% 29.99 in 10.0 mi South 5.8 mph - N/A   Scattered Clouds
2:52 PM 66.0 °F 50.0 °F 56% 29.97 in 10.0 mi South 11.5 mph 18.4 mph N/A   Mostly Cloudy
3:52 PM 68.0 °F 50.0 °F 52% 29.94 in 10.0 mi South 15.0 mph - N/A   Mostly Cloudy
4:52 PM 68.0 °F 48.9 °F 50% 29.93 in 10.0 mi SSE 13.8 mph - N/A   Clear
5:52 PM 66.0 °F 50.0 °F 56% 29.92 in 10.0 mi SSE 17.3 mph - N/A   Clear
6:52 PM 62.1 °F 51.1 °F 67% 29.94 in 10.0 mi SSE 12.7 mph - N/A   Clear
7:52 PM 57.0 °F 48.9 °F 74% 29.96 in 10.0 mi South 10.4 mph - N/A   Clear
8:52 PM 55.9 °F 46.9 °F 72% 29.99 in 10.0 mi SW 11.5 mph 18.4 mph N/A   Partly Cloudy
9:52 PM 54.0 °F 48.0 °F 80% 30.02 in 10.0 mi SSW 5.8 mph - N/A   Scattered Clouds
10:52 PM 51.1 °F 46.9 °F 86% 30.01 in 10.0 mi SSW 6.9 mph - N/A   Clear
11:52 PM 50.0 °F 46.0 °F 86% 30.01 in 10.0 mi SSW 5.8 mph - N/A   Clear